Wind_Speed
3 3 2 2 2 2 2 1 2 1 1 1 1 1 1 1 1 2 2 2 2 2 2 2 2 3 3 3 3 3 3 3 4 4 4 4 5 5 6 6 5 5 4
2 3 2 2 2 2 2 1 1 1 1 1 1 1 1 2 2 2 3 3 3 3 3 2 2 3 3 3 3 3 4 4 4 4 4 4 4 4 5 6 6 6 5
2 2 2 2 2 2 2 1 1 1 0 1 1 1 2 2 2 3 3 3 3 3 3 3 3 3 3 3 3 4 4 4 4 4 4 4 4 3 4 5 6 7 6
3 3 2 2 2 1 1 0 1 0 1 1 2 2 2 2 2 3 3 3 3 3 3 3 3 4 4 4 4 4 4 4 5 5 5 5 4 4 4 5 5 7 7
3 3 3 2 2 2 2 2 1 1 1 2 2 2 1 2 2 3 3 3 3 3 3 3 3 4 4 4 4 4 5 5 5 5 5 5 5 5 5 5 6 6 7
3 3 3 3 3 2 2 2 1 1 2 2 2 1 1 2 2 3 3 4 3 3 3 3 3 3 4 4 5 5 5 5 6 6 6 6 6 6 6 6 6 7 7
4 3 3 4 3 2 2 2 2 1 2 2 2 2 2 2 2 3 3 3 3 3 3 2 3 3 3 4 5 5 5 5 6 6 7 7 7 7 7 7 7 7 7
4 4 4 4 4 3 2 1 1 1 1 2 1 1 2 2 2 2 3 3 3 4 3 3 2 3 3 4 4 5 5 5 6 7 7 8 8 8 8 8 9 9 8
4 5 4 4 3 3 2 1 1 1 1 1 1 2 2 2 2 2 3 3 3 4 4 3 2 3 3 4 5 5 6 5 6 7 7 8 8 9 9 9 10 10 10
4 5 5 4 4 3 3 2 2 2 2 1 1 1 2 2 2 2 2 3 3 4 4 4 3 3 3 4 5 5 5 5 6 6 7 8 8 9 9 10 10 10 10
5 5 5 5 4 4 4 3 2 2 2 2 1 2 2 2 2 2 2 3 3 4 4 4 4 3 4 4 5 5 5 6 6 6 7 8 8 8 9 10 9 10 10
5 5 5 5 4 4 4 3 3 2 2 2 2 2 3 3 3 3 2 3 3 3 3 4 4 4 4 4 4 4 5 5 6 6 6 7 7 7 8 9 9 9 10
6 5 5 5 5 5 4 4 4 3 2 2 2 3 3 3 2 3 2 3 3 3 3 4 4 4 4 4 4 3 3 4 4 4 5 5 6 7 7 8 9 9 9
6 6 6 5 5 5 5 4 4 3 3 3 2 3 3 2 2 2 2 3 3 3 3 4 4 4 4 4 3 2 3 3 3 3 3 3 4 5 6 7 8 8 8
6 7 6 6 5 5 5 4 3 3 2 2 2 2 2 2 2 2 2 3 2 2 3 4 4 4 4 4 3 2 2 2 3 3 3 3 2 3 4 5 7 8 8
6 6 6 5 5 5 5 4 3 3 2 2 2 2 1 1 1 1 2 2 2 2 3 4 3 3 4 4 4 3 2 2 2 3 3 3 3 3 4 5 6 7 8
6 6 6 5 5 5 5 4 4 3 2 2 2 2 1 1 1 1 2 2 2 2 3 3 3 4 4 4 4 4 3 3 3 3 3 3 3 4 4 5 6 7 7
7 7 7 6 6 5 5 4 3 3 2 2 1 1 1 1 1 1 2 2 2 2 3 4 4 4 4 4 4 4 4 3 3 3 3 3 3 3 4 5 6 7 7
7 8 7 7 6 6 5 5 4 3 3 2 1 1 1 1 1 1 1 2 2 2 3 3 4 4 4 4 4 4 4 4 4 4 4 4 4 3 4 4 5 6 6
8 8 8 7 6 6 6 5 5 4 3 2 2 2 2 1 1 2 2 2 2 2 2 3 4 4 4 4 4 4 4 4 4 4 4 4 4 4 4 4 4 5 6
8 8 8 7 6 6 6 6 5 5 4 3 3 3 3 2 2 2 3 3 2 2 2 2 3 4 4 4 4 4 4 4 4 4 4 5 5 5 5 4 4 5 6
9 9 8 8 7 7 7 6 6 5 5 4 4 4 3 3 3 3 3 3 3 3 2 2 3 3 3 4 4 4 5 4 4 5 5 5 5 6 6 5 5 5 5
9 9 9 8 8 8 8 7 6 6 5 5 5 4 4 4 4 4 4 4 4 3 3 3 2 3 3 4 4 4 5 5 5 5 6 6 6 6 6 6 6 6 5
10 10 10 9 8 8 9 8 8 7 6 6 6 5 5 5 5 5 5 5 4 3 3 3 3 3 4 4 4 4 5 5 5 5 6 6 6 7 7 7 7 7 6
10 10 10 10 9 9 9 9 9 8 8 7 7 6 6 6 5 5 5 5 5 4 4 4 4 5 5 5 5 5 5 5 5 5 6 6 6 7 7 7 7 8 8
11 11 10 10 10 10 9 9 9 9 8 8 8 7 7 6 6 6 6 6 5 5 5 5 5 5 5 5 5 5 5 5 6 6 6 7 7 8 8 8 9 8 9
Wind_Direction
154 150 123 103 112 119 114 112 115 88 51 322 292 238 207 287 295 305 312 281 275 283 271 255 240 242 244 242 235 220 206 211 219 223 226 228 225 223 222 223 215 202 203
149 156 143 136 142 142 139 165 148 85 70 316 310 246 268 283 285 277 299 290 279 276 274 259 247 248 252 243 239 232 227 226 231 232 235 238 239 237 229 224 215 210 206
178 172 161 155 155 133 140 150 167 178 62 358 330 321 306 284 292 280 293 296 293 282 275 263 253 256 258 257 250 243 238 237 239 238 237 237 240 240 223 215 214 208 208
196 193 196 208 193 183 165 127 202 214 357 346 329 324 317 298 293 298 295 307 309 291 276 270 266 260 260 261 257 250 245 244 242 247 246 242 240 238 229 220 215 213 211
209 213 203 209 211 226 245 269 295 317 359 354 341 322 324 316 313 313 315 321 323 305 282 280 281 274 263 257 257 259 254 247 248 253 251 248 244 242 233 227 224 223 220
212 216 210 203 216 235 249 277 287 347 343 346 350 337 318 323 318 324 324 325 329 323 298 291 292 285 266 259 262 266 262 255 254 257 256 251 247 245 240 235 231 230 226
228 229 220 197 214 234 246 266 277 318 339 341 332 324 327 326 323 332 332 330 331 331 323 312 308 294 278 269 268 272 272 266 262 262 258 252 248 245 246 240 235 233 232
229 234 237 216 207 224 244 249 250 304 346 353 338 313 319 327 339 334 345 346 349 349 347 340 322 304 300 289 282 281 277 272 271 268 263 255 249 247 248 246 240 237 237
229 226 218 212 217 218 226 223 240 267 316 340 359 13 11 9 353 347 352 352 355 348 343 344 332 312 304 297 292 286 284 281 276 271 264 257 253 252 249 245 242 237 239
230 233 229 224 228 227 227 232 250 255 291 306 314 345 347 354 350 342 340 346 352 352 346 348 335 319 308 298 297 295 290 285 282 275 269 263 260 257 254 247 243 240 238
226 233 233 231 238 244 226 232 236 253 289 305 300 304 316 319 324 325 321 335 348 348 346 348 342 330 316 302 297 297 296 295 290 284 275 268 266 260 257 247 243 241 237
227 234 230 227 233 236 232 243 244 254 276 287 285 302 313 314 314 315 308 320 338 345 349 350 347 338 325 313 302 302 306 301 292 286 280 272 266 260 255 245 241 242 239
227 228 227 228 229 236 239 243 245 249 259 270 274 293 304 306 310 315 310 316 329 339 346 345 345 344 336 327 319 318 319 309 298 292 287 280 271 261 252 242 240 242 241
220 225 222 221 222 238 239 236 239 241 251 258 267 285 290 299 308 314 309 321 331 340 348 348 351 359 354 342 337 334 327 314 307 305 294 282 269 255 244 242 244 244 242
221 222 222 221 225 229 225 224 230 227 241 244 254 266 275 290 308 319 328 338 346 348 352 353 357 4 358 351 336 325 319 317 313 318 313 298 276 256 248 244 247 247 246
219 218 222 224 223 222 222 226 228 214 220 238 242 245 264 278 304 338 347 346 347 353 356 350 345 350 358 357 346 328 320 319 315 315 313 300 284 266 255 251 249 249 249
219 219 224 224 220 221 224 223 222 208 220 226 226 238 259 276 301 355 359 350 345 345 350 352 352 356 358 355 350 348 343 347 338 316 307 301 293 279 274 269 263 257 257
220 221 218 224 224 221 219 215 215 219 216 214 225 230 238 273 308 345 358 358 2 1 353 355 353 356 357 357 356 357 354 349 352 340 329 321 312 301 291 280 271 264 263
221 217 218 224 226 221 218 216 221 231 222 215 223 233 229 246 288 319 340 344 352 356 350 355 358 1 6 7 6 4 359 354 351 346 344 334 324 316 309 297 281 266 265
217 215 220 222 221 215 214 216 221 231 227 222 231 238 233 240 274 303 324 317 319 333 341 349 4 8 12 13 12 4 360 356 352 351 348 336 328 320 314 309 293 275 270
217 216 218 219 222 219 215 217 221 226 228 229 237 239 237 246 265 281 310 311 313 318 329 340 356 5 9 13 14 11 7 1 354 347 341 336 328 322 316 312 303 288 278
214 214 217 221 222 223 220 221 228 232 233 235 238 239 243 253 267 277 296 305 304 301 301 319 342 351 2 8 12 11 7 2 353 346 342 340 334 328 323 317 314 306 284
215 219 220 222 224 224 222 224 230 235 234 234 238 240 245 251 264 275 288 299 299 295 296 303 317 330 342 350 355 359 358 351 345 344 344 342 340 335 329 323 319 314 305
218 222 223 224 227 226 227 231 232 236 236 236 237 239 247 253 261 272 283 289 288 287 288 295 301 306 317 327 332 339 342 341 339 337 338 338 337 338 336 330 321 316 310
220 222 225 226 227 227 230 234 237 239 239 238 239 243 249 256 260 267 277 284 281 281 283 287 291 300 309 308 311 317 325 329 331 334 334 334 332 332 331 330 325 319 313
222 225 227 227 227 228 231 233 237 238 239 240 241 246 249 255 259 267 275 280 279 281 285 288 292 299 302 302 302 303 310 315 318 321 324 325 324 325 323 323 325 321 317
Height
5894 5894 5894 5894 5894 5894 5894 5894 5894 5894 5894 5894 5893 5893 5893 5893 5893 5892 5892 5891 5891 5890 5889 5889 5888 5888 5888 5888 5888 5888 5888 5888 5888 5889 5889 5889 5889 5889 5889 5889 5890 5891 5891
5894 5894 5894 5894 5894 5894 5894 5894 5894 5894 5894 5894 5894 5893 5893 5893 5893 5892 5891 5891 5890 5890 5889 5888 5888 5888 5888 5887 5887 5887 5887 5888 5888 5888 5888 5888 5888 5888 5887 5888 5888 5890 5891
5894 5894 5894 5894 5894 5894 5894 5894 5894 5894 5894 5894 5894 5893 5893 5893 5892 5892 5891 5891 5890 5889 5888 5888 5888 5887 5887 5887 5887 5886 5887 5887 5887 5887 5887 5887 5887 5887 5886 5887 5888 5889 5890
5894 5894 5894 5894 5894 5894 5894 5894 5894 5894 5894 5894 5894 5893 5893 5893 5892 5892 5891 5890 5889 5888 5888 5887 5887 5887 5886 5886 5886 5886 5886 5886 5886 5886 5886 5886 5887 5887 5887 5887 5888 5888 5889
5893 5893 5893 5894 5894 5895 5895 5895 5895 5895 5894 5894 5893 5893 5893 5893 5892 5891 5890 5889 5888 5888 5887 5886 5886 5886 5885 5885 5885 5885 5885 5885 5885 5885 5885 5886 5886 5886 5886 5887 5887 5888 5888
5893 5893 5893 5894 5894 5894 5895 5895 5895 5895 5894 5894 5893 5893 5893 5892 5891 5891 5890 5889 5888 5887 5886 5886 5885 5885 5885 5884 5884 5884 5884 5884 5884 5884 5884 5885 5885 5885 5885 5886 5886 5887 5887
5892 5893 5893 5893 5894 5894 5894 5894 5894 5894 5894 5893 5893 5893 5892 5892 5891 5890 5889 5888 5887 5887 5886 5885 5884 5884 5884 5883 5883 5883 5883 5883 5883 5883 5883 5883 5884 5884 5884 5885 5885 5886 5887
5891 5892 5892 5893 5893 5894 5894 5894 5894 5894 5893 5893 5893 5892 5892 5891 5891 5890 5889 5888 5887 5886 5885 5885 5884 5883 5883 5883 5882 5882 5882 5882 5882 5882 5882 5882 5882 5882 5883 5883 5884 5885 5885
5890 5891 5892 5892 5893 5893 5894 5894 5894 5893 5893 5893 5892 5892 5891 5891 5890 5889 5888 5888 5887 5886 5885 5884 5883 5883 5882 5882 5882 5881 5881 5881 5880 5880 5880 5880 5880 5881 5881 5882 5882 5883 5884
5890 5891 5891 5892 5893 5893 5893 5893 5893 5893 5893 5892 5892 5891 5891 5891 5890 5889 5888 5887 5886 5885 5884 5884 5883 5882 5881 5881 5881 5880 5880 5879 5879 5879 5878 5878 5878 5879 5879 5880 5880 5881 5882
5889 5890 5890 5891 5891 5892 5892 5892 5892 5892 5892 5892 5891 5891 5891 5890 5890 5889 5888 5887 5886 5885 5884 5883 5882 5882 5881 5880 5880 5879 5879 5878 5878 5877 5877 5877 5877 5877 5877 5878 5878 5879 5880
5888 5888 5889 5890 5890 5891 5891 5892 5892 5892 5891 5891 5891 5891 5890 5890 5889 5888 5887 5887 5886 5885 5884 5883 5882 5881 5880 5879 5878 5878 5878 5877 5877 5876 5875 5875 5875 5875 5875 5876 5877 5878 5878
5886 5887 5888 5889 5889 5890 5890 5891 5891 5891 5891 5891 5890 5890 5890 5889 5889 5888 5887 5886 5885 5884 5884 5882 5881 5880 5879 5878 5878 5877 5877 5876 5875 5875 5874 5873 5873 5873 5873 5874 5875 5876 5877
5885 5886 5887 5887 5888 5889 5889 5890 5890 5890 5890 5890 5889 5889 5889 5889 5888 5887 5886 5886 5885 5884 5883 5882 5881 5880 5879 5878 5877 5876 5876 5875 5875 5874 5873 5873 5872 5872 5872 5872 5873 5874 5875
5884 5884 5885 5886 5887 5887 5888 5888 5889 5889 5889 5889 5889 5888 5888 5888 5887 5887 5886 5885 5884 5884 5883 5882 5880 5879 5878 5877 5876 5876 5875 5875 5874 5873 5873 5872 5871 5871 5871 5871 5872 5872 5873
5882 5883 5884 5885 5886 5886 5887 5887 5887 5888 5888 5888 5888 5888 5887 5887 5887 5886 5886 5885 5884 5883 5882 5882 5880 5879 5878 5877 5876 5875 5875 5874 5873 5873 5872 5871 5871 5870 5870 5870 5870 5870 5871
5881 5882 5883 5884 5884 5885 5886 5886 5886 5887 5887 5887 5887 5887 5887 5886 5886 5886 5885 5884 5884 5883 5882 5881 5880 5879 5878 5877 5876 5875 5874 5873 5872 5872 5871 5870 5870 5869 5869 5868 5868 5868 5869
5880 5881 5882 5883 5883 5884 5884 5885 5886 5886 5886 5886 5886 5886 5886 5886 5886 5885 5885 5884 5883 5883 5882 5881 5880 5879 5878 5876 5875 5875 5874 5873 5872 5871 5870 5869 5869 5868 5868 5867 5866 5866 5866
5879 5879 5881 5881 5882 5882 5883 5884 5885 5885 5885 5885 5885 5885 5885 5885 5885 5885 5884 5884 5883 5882 5881 5880 5879 5878 5877 5876 5875 5874 5873 5873 5872 5871 5870 5869 5868 5867 5866 5866 5865 5864 5864
5877 5878 5879 5880 5881 5881 5882 5883 5884 5884 5884 5884 5884 5884 5885 5884 5884 5884 5884 5883 5882 5882 5881 5880 5879 5878 5877 5876 5875 5874 5873 5872 5871 5870 5869 5868 5867 5866 5865 5864 5863 5863 5863
5875 5877 5878 5879 5879 5880 5881 5882 5882 5883 5883 5883 5883 5884 5884 5884 5883 5883 5883 5882 5882 5881 5880 5880 5879 5878 5877 5876 5875 5874 5873 5872 5871 5870 5869 5868 5867 5865 5864 5863 5862 5861 5861
5874 5875 5876 5877 5878 5879 5880 5880 5881 5881 5882 5882 5882 5883 5883 5883 5883 5882 5882 5882 5881 5880 5880 5879 5878 5877 5877 5876 5875 5874 5873 5873 5871 5870 5869 5867 5866 5865 5863 5862 5861 5860 5859
5872 5874 5875 5875 5876 5877 5878 5879 5879 5880 5880 5881 5881 5881 5882 5882 5882 5881 5881 5880 5880 5880 5879 5878 5878 5877 5876 5875 5874 5874 5873 5872 5871 5869 5868 5867 5866 5864 5863 5861 5860 5859 5858
5871 5872 5873 5874 5875 5876 5876 5877 5878 5878 5879 5879 5879 5880 5880 5880 5880 5880 5880 5879 5879 5878 5878 5877 5877 5876 5875 5874 5874 5873 5872 5871 5870 5869 5867 5866 5865 5864 5862 5861 5859 5858 5856
5869 5870 5871 5872 5873 5874 5874 5875 5876 5876 5877 5877 5878 5878 5878 5878 5879 5878 5878 5878 5877 5877 5877 5876 5876 5875 5874 5873 5873 5872 5871 5870 5869 5868 5866 5865 5864 5863 5861 5860 5858 5857 5855
5866 5868 5869 5870 5871 5871 5872 5873 5874 5874 5875 5875 5876 5876 5876 5877 5877 5877 5877 5876 5876 5876 5875 5875 5874 5874 5873 5872 5871 5871 5870 5869 5868 5867 5866 5864 5863 5862 5860 5859 5857 5856 5854